Time,TemperatureF,DewpointF,PressureIn,WindDirection,WindDirectionDegrees,WindSpeedMPH,WindSpeedGustMPH,Humidity,HourlyPrecipIn,Conditions,Clouds,dailyrainin,SolarRadiationWatts/m^2,SoftwareType,DateUTC
2013-01-03 00:22:00,35.0,-5.0,-100.00,NNE,22,4.0,8.0,17,0.00,,,0.00,0.000000,,2013-01-03 08:22:00,
2013-01-03 00:32:00,35.0,-5.0,-100.00,NNE,22,4.0,8.0,17,0.00,,,0.00,0.000000,,2013-01-03 08:32:00,
2013-01-03 00:42:00,35.0,-5.0,-100.00,NNE,22,4.0,8.0,17,0.00,,,0.00,0.000000,,2013-01-03 08:42:00,
2013-01-03 00:51:00,37.0,-6.0,-100.00,NNW,334,0.0,8.0,15,0.00,,,0.00,0.000000,,2013-01-03 08:51:00,
2013-01-03 01:12:00,37.0,-6.0,-100.00,NNW,334,0.0,8.0,15,0.00,,,0.00,0.000000,,2013-01-03 09:12:00,
2013-01-03 01:22:00,37.0,-6.0,-100.00,NNW,334,0.0,8.0,15,0.00,,,0.00,0.000000,,2013-01-03 09:22:00,
2013-01-03 01:42:00,37.0,-6.0,-100.00,NNW,334,0.0,8.0,15,0.00,,,0.00,0.000000,,2013-01-03 09:42:00,
2013-01-03 02:22:00,34.0,-9.0,-100.00,NNE,23,0.0,6.0,15,-99.99,,,0.00,0.000000,,2013-01-03 10:22:00,
2013-01-03 02:32:00,34.0,-9.0,-100.00,NNE,23,0.0,6.0,15,-99.99,,,0.00,0.000000,,2013-01-03 10:32:00,
2013-01-03 02:51:00,35.0,-4.0,-100.00,North,3,4.0,6.0,18,0.00,,,0.00,0.000000,,2013-01-03 10:51:00,
2013-01-03 03:12:00,35.0,-4.0,-100.00,North,3,4.0,6.0,18,0.00,,,0.00,0.000000,,2013-01-03 11:12:00,
2013-01-03 03:22:00,35.0,-4.0,-100.00,North,3,4.0,6.0,18,0.00,,,0.00,0.000000,,2013-01-03 11:22:00,
2013-01-03 03:33:00,35.0,-4.0,-100.00,North,3,4.0,6.0,18,0.00,,,0.00,0.000000,,2013-01-03 11:33:00,
2013-01-03 03:42:00,35.0,-4.0,-100.00,North,3,4.0,6.0,18,0.00,,,0.00,0.000000,,2013-01-03 11:42:00,
2013-01-03 03:51:00,33.0,-3.0,-100.00,NNW,337,5.0,7.0,21,0.00,,,0.00,0.000000,,2013-01-03 11:51:00,
2013-01-03 04:12:00,33.0,-3.0,-100.00,NNW,337,5.0,7.0,21,0.00,,,0.00,0.000000,,2013-01-03 12:12:00,
2013-01-03 04:22:00,33.0,-3.0,-100.00,NNW,337,5.0,7.0,21,0.00,,,0.00,0.000000,,2013-01-03 12:22:00,
2013-01-03 04:32:00,33.0,-3.0,-100.00,NNW,337,5.0,7.0,21,0.00,,,0.00,0.000000,,2013-01-03 12:32:00,
2013-01-03 04:42:00,33.0,-3.0,-100.00,NNW,337,5.0,7.0,21,0.00,,,0.00,0.000000,,2013-01-03 12:42:00,
2013-01-03 04:51:00,32.0,-2.0,-100.00,NNW,333,4.0,12.0,23,0.00,,,-99.99,0.000000,,2013-01-03 12:51:00,
2013-01-03 05:22:00,32.0,-2.0,-100.00,NNW,333,4.0,12.0,23,0.00,,,-99.99,0.000000,,2013-01-03 13:22:00,
2013-01-03 05:32:00,32.0,-2.0,-100.00,NNW,333,4.0,12.0,23,0.00,,,-99.99,0.000000,,2013-01-03 13:32:00,
2013-01-03 05:42:00,32.0,-2.0,-100.00,NNW,333,4.0,12.0,23,0.00,,,-99.99,0.000000,,2013-01-03 13:42:00,
2013-01-03 05:51:00,33.0,-2.0,-100.00,NNE,18,4.0,7.0,22,0.00,,,0.00,0.000000,,2013-01-03 13:51:00,
2013-01-03 06:12:00,33.0,-2.0,-100.00,NNE,18,4.0,7.0,22,0.00,,,0.00,0.000000,,2013-01-03 14:12:00,
2013-01-03 06:22:00,33.0,-2.0,-100.00,NNE,18,4.0,7.0,22,0.00,,,0.00,0.000000,,2013-01-03 14:22:00,
2013-01-03 06:32:00,33.0,-2.0,-100.00,NNE,18,4.0,7.0,22,0.00,,,0.00,0.000000,,2013-01-03 14:32:00,
2013-01-03 06:42:00,33.0,-2.0,-100.00,NNE,18,4.0,7.0,22,0.00,,,0.00,0.000000,,2013-01-03 14:42:00,
2013-01-03 06:51:00,32.0,-3.0,-100.00,NNE,32,0.0,6.0,21,0.00,,,0.00,0.000000,,2013-01-03 14:51:00,
2013-01-03 07:12:00,32.0,-3.0,-100.00,NNE,32,0.0,6.0,21,0.00,,,0.00,0.000000,,2013-01-03 15:12:00,
2013-01-03 07:22:00,32.0,-3.0,-100.00,NNE,32,0.0,6.0,21,0.00,,,0.00,0.000000,,2013-01-03 15:22:00,
2013-01-03 07:33:00,32.0,-3.0,-100.00,NNE,32,0.0,6.0,21,0.00,,,0.00,0.000000,,2013-01-03 15:33:00,
2013-01-03 07:42:00,32.0,-3.0,-100.00,NNE,32,0.0,6.0,21,0.00,,,0.00,0.000000,,2013-01-03 15:42:00,
2013-01-03 07:51:00,37.0,-6.0,-100.00,NNE,26,0.0,3.0,15,0.00,,,0.00,44.000000,,2013-01-03 15:51:00,
2013-01-03 08:12:00,37.0,-6.0,-100.00,NNE,26,0.0,3.0,15,0.00,,,0.00,44.000000,,2013-01-03 16:12:00,
2013-01-03 08:22:00,37.0,-6.0,-100.00,NNE,26,0.0,3.0,15,0.00,,,0.00,44.000000,,2013-01-03 16:22:00,
2013-01-03 08:33:00,37.0,-6.0,-100.00,NNE,26,0.0,3.0,15,0.00,,,0.00,44.000000,,2013-01-03 16:33:00,
2013-01-03 08:42:00,37.0,-6.0,-100.00,NNE,26,0.0,3.0,15,0.00,,,0.00,44.000000,,2013-01-03 16:42:00,
2013-01-03 08:51:00,44.0,-5.0,-100.00,NE,36,0.0,5.0,12,0.00,,,-99.99,297.000000,,2013-01-03 16:51:00,
2013-01-03 09:12:00,44.0,-5.0,-100.00,NE,36,0.0,5.0,12,0.00,,,-99.99,297.000000,,2013-01-03 17:12:00,
2013-01-03 09:42:00,44.0,-5.0,-100.00,NE,36,0.0,5.0,12,0.00,,,-99.99,297.000000,,2013-01-03 17:42:00,
2013-01-03 09:51:00,47.0,8.0,-100.00,SW,235,0.0,3.0,20,0.00,,,0.00,299.000000,,2013-01-03 17:51:00,
2013-01-03 10:13:00,47.0,8.0,-100.00,SW,235,0.0,3.0,20,0.00,,,0.00,299.000000,,2013-01-03 18:13:00,
2013-01-03 10:22:00,47.0,8.0,-100.00,SW,235,0.0,3.0,20,0.00,,,0.00,299.000000,,2013-01-03 18:22:00,
2013-01-03 10:42:00,47.0,8.0,-100.00,SW,235,0.0,3.0,20,0.00,,,0.00,299.000000,,2013-01-03 18:42:00,
2013-01-03 10:51:00,48.0,1.0,-100.00,North,359,2.0,6.0,14,-99.99,,,0.00,699.000000,,2013-01-03 18:51:00,
2013-01-03 11:51:00,46.0,-4.0,-100.00,NNW,346,4.0,12.0,12,-99.99,,,0.00,819.000000,,2013-01-03 19:51:00,
2013-01-03 12:22:00,46.0,-4.0,-100.00,NNW,346,4.0,12.0,12,-99.99,,,0.00,819.000000,,2013-01-03 20:22:00,
2013-01-03 12:42:00,46.0,-4.0,-100.00,NNW,346,4.0,12.0,12,-99.99,,,0.00,819.000000,,2013-01-03 20:42:00,
2013-01-03 13:12:00,47.0,-5.0,-100.00,NNW,346,2.0,13.0,11,0.00,,,0.00,860.000000,,2013-01-03 21:12:00,
2013-01-03 13:22:00,47.0,-5.0,-100.00,NNW,346,2.0,13.0,11,0.00,,,0.00,860.000000,,2013-01-03 21:22:00,
2013-01-03 14:22:00,49.0,-5.0,-100.00,NNW,334,0.0,8.0,10,-99.99,,,0.02,794.000000,,2013-01-03 22:22:00,
2013-01-03 15:22:00,44.0,3.0,-100.00,NW,322,2.0,6.0,18,-99.99,,,0.03,644.000000,,2013-01-03 23:22:00,
2013-01-03 15:51:00,37.0,8.0,-100.00,NW,323,1.0,6.0,29,0.00,,,0.03,262.000000,,2013-01-03 23:51:00,
2013-01-03 16:12:00,37.0,8.0,-100.00,NW,323,1.0,6.0,29,0.00,,,0.03,262.000000,,2013-01-04 00:12:00,
2013-01-03 16:22:00,37.0,8.0,-100.00,NW,323,1.0,6.0,29,0.00,,,0.03,262.000000,,2013-01-04 00:22:00,
2013-01-03 16:32:00,37.0,8.0,-100.00,NW,323,1.0,6.0,29,0.00,,,0.03,262.000000,,2013-01-04 00:32:00,
2013-01-03 16:42:00,37.0,8.0,-100.00,NW,323,1.0,6.0,29,0.00,,,0.03,262.000000,,2013-01-04 00:42:00,
2013-01-03 16:51:00,36.0,5.0,-100.00,NNW,333,4.0,7.0,27,0.01,,,0.04,27.000000,,2013-01-04 00:51:00,
2013-01-03 17:12:00,36.0,5.0,-100.00,NNW,333,4.0,7.0,27,0.01,,,0.04,27.000000,,2013-01-04 01:12:00,
2013-01-03 17:22:00,36.0,5.0,-100.00,NNW,333,4.0,7.0,27,0.01,,,0.04,27.000000,,2013-01-04 01:22:00,
2013-01-03 17:32:00,36.0,5.0,-100.00,NNW,333,4.0,7.0,27,0.01,,,0.04,27.000000,,2013-01-04 01:32:00,
2013-01-03 17:42:00,36.0,5.0,-100.00,NNW,333,4.0,7.0,27,0.01,,,0.04,27.000000,,2013-01-04 01:42:00,
2013-01-03 17:51:00,33.0,4.0,-100.00,East,82,6.0,8.0,29,0.00,,,0.04,1.000000,,2013-01-04 01:51:00,
2013-01-03 18:12:00,33.0,4.0,-100.00,East,82,6.0,8.0,29,0.00,,,0.04,1.000000,,2013-01-04 02:12:00,
2013-01-03 18:22:00,33.0,4.0,-100.00,East,82,6.0,8.0,29,0.00,,,0.04,1.000000,,2013-01-04 02:22:00,
2013-01-03 18:32:00,33.0,4.0,-100.00,East,82,6.0,8.0,29,0.00,,,0.04,1.000000,,2013-01-04 02:32:00,
2013-01-03 18:42:00,33.0,4.0,-100.00,East,82,6.0,8.0,29,0.00,,,0.04,1.000000,,2013-01-04 02:42:00,
2013-01-03 18:51:00,33.0,4.0,-100.00,North,356,5.0,8.0,29,0.00,,,0.04,0.000000,,2013-01-04 02:51:00,
2013-01-03 19:12:00,33.0,4.0,-100.00,North,356,5.0,8.0,29,0.00,,,0.04,0.000000,,2013-01-04 03:12:00,
2013-01-03 19:22:00,33.0,4.0,-100.00,North,356,5.0,8.0,29,0.00,,,0.04,0.000000,,2013-01-04 03:22:00,
2013-01-03 19:32:00,33.0,4.0,-100.00,North,356,5.0,8.0,29,0.00,,,0.04,0.000000,,2013-01-04 03:32:00,
2013-01-03 19:42:00,33.0,4.0,-100.00,North,356,5.0,8.0,29,0.00,,,0.04,0.000000,,2013-01-04 03:42:00,
2013-01-03 19:51:00,34.0,7.0,-100.00,NNE,21,0.0,7.0,31,0.00,,,0.04,0.000000,,2013-01-04 03:51:00,
2013-01-03 20:12:00,34.0,7.0,-100.00,NNE,21,0.0,7.0,31,0.00,,,0.04,0.000000,,2013-01-04 04:12:00,
2013-01-03 20:22:00,34.0,7.0,-100.00,NNE,21,0.0,7.0,31,0.00,,,0.04,0.000000,,2013-01-04 04:22:00,
2013-01-03 20:32:00,34.0,7.0,-100.00,NNE,21,0.0,7.0,31,0.00,,,0.04,0.000000,,2013-01-04 04:32:00,
2013-01-03 20:42:00,34.0,7.0,-100.00,NNE,21,0.0,7.0,31,0.00,,,0.04,0.000000,,2013-01-04 04:42:00,
2013-01-03 20:51:00,35.0,7.0,-100.00,North,6,3.0,4.0,31,0.00,,,0.04,0.000000,,2013-01-04 04:51:00,
2013-01-03 21:22:00,35.0,7.0,-100.00,North,6,3.0,4.0,31,0.00,,,0.04,0.000000,,2013-01-04 05:22:00,
2013-01-03 21:33:00,35.0,7.0,-100.00,North,6,3.0,4.0,31,0.00,,,0.04,0.000000,,2013-01-04 05:33:00,
2013-01-03 21:42:00,35.0,7.0,-100.00,North,6,3.0,4.0,31,0.00,,,0.04,0.000000,,2013-01-04 05:42:00,
2013-01-03 21:51:00,34.0,4.0,-100.00,North,4,0.0,4.0,28,0.00,,,0.04,0.000000,,2013-01-04 05:51:00,
2013-01-03 22:12:00,34.0,4.0,-100.00,North,4,0.0,4.0,28,0.00,,,0.04,0.000000,,2013-01-04 06:12:00,
2013-01-03 22:22:00,34.0,4.0,-100.00,North,4,0.0,4.0,28,0.00,,,0.04,0.000000,,2013-01-04 06:22:00,
2013-01-03 22:32:00,34.0,4.0,-100.00,North,4,0.0,4.0,28,0.00,,,0.04,0.000000,,2013-01-04 06:32:00,
2013-01-03 22:42:00,34.0,4.0,-100.00,North,4,0.0,4.0,28,0.00,,,0.04,0.000000,,2013-01-04 06:42:00,
2013-01-03 22:51:00,35.0,4.0,-100.00,North,350,3.0,5.0,26,0.00,,,0.04,0.000000,,2013-01-04 06:51:00,
2013-01-03 23:22:00,35.0,4.0,-100.00,North,350,3.0,5.0,26,0.00,,,0.04,0.000000,,2013-01-04 07:22:00,
2013-01-03 23:32:00,35.0,4.0,-100.00,North,350,3.0,5.0,26,0.00,,,0.04,0.000000,,2013-01-04 07:32:00,
2013-01-03 23:42:00,35.0,4.0,-100.00,North,350,3.0,5.0,26,0.00,,,0.04,0.000000,,2013-01-04 07:42:00,
2013-01-03 23:51:00,37.0,-4.0,-100.00,NNE,32,0.0,5.0,17,0.00,,,0.04,0.000000,,2013-01-04 07:51:00,